Weather History for KSKX - March, 2014

Change the Weather History Date:

Monday, March 17, 2014

  Actual Average Record
Temperature  
Mean Temperature 38 °F -  
Max Temperature 60 °F 54 °F 73 °F (2007)
Min Temperature 17 °F 22 °F 6 °F (2005)
Degree Days  
Heating Degree Days 26    
Moisture  
Dew Point 9 °F    
Average Humidity 33    
Maximum Humidity 68    
Minimum Humidity 11    
Precipitation  
Precipitation 0.00 in - - ()
Sea Level Pressure  
Sea Level Pressure 29.86 in    
Wind  
Wind Speed 8 mph (West)    
Max Wind Speed 34 mph    
Max Gust Speed 45 mph    
Visibility 10 miles    
Events      
Averages and records for this station are not official NWS values.
T = Trace of Precipitation, MM = Missing Value Source: NWS Daily Summary

Daily Weather History Graph

Daily Weather History Graph

Search for Another Location

Airport or City:

Trip Planner

Search our weather history database for the weather conditions in past years. The results will help you decide how hot, cold, wet, or windy it might be!

Date:

Astronomy

Mar. 17, 2014 Rise Set
Actual Time 7:10 AM MDT 7:11 PM MDT
Civil Twilight 6:44 AM MDT 7:37 PM MDT
Nautical Twilight 6:14 AM MDT 8:07 PM MDT
Astronomical Twilight 5:44 AM MDT 8:37 PM MDT
Moon 8:28 PM MDT (3/17) 7:29 AM MDT (3/17)
Length of Visible Light 12h 52m
Length of Day
12h 01m
Full, 99% of the Moon is Illuminated
Mar 17
Full
Mar 23
Last Quarter
Mar 30
New
Apr 7
First Quarter
Apr 15
Full

Hourly Weather History & Observations

Time (MDT) Temp. Windchill Dew Point Humidity Pressure Visibility Wind Dir Wind Speed Gust Speed Precip Events Conditions
12:15 AM 28.4 °F 24.6 °F 6.8 °F 40% 30.17 in 10.0 mi East 3.5 mph - N/A   Clear
12:35 AM 24.8 °F 17.9 °F 3.2 °F 40% 30.17 in 10.0 mi North 5.8 mph - N/A   Clear
12:55 AM 26.6 °F - 10.4 °F 51% 30.17 in 10.0 mi Calm Calm - N/A   Clear
1:15 AM 24.8 °F 20.5 °F 8.6 °F 50% 30.16 in 10.0 mi North 3.5 mph - N/A   Clear
1:35 AM 24.8 °F 20.5 °F 8.6 °F 50% 30.15 in 10.0 mi North 3.5 mph - N/A   Clear
1:55 AM 24.8 °F - 8.6 °F 50% 30.14 in 10.0 mi Calm Calm - N/A   Clear
2:15 AM 24.8 °F - 8.6 °F 50% 30.15 in 10.0 mi Calm Calm - N/A   Clear
2:35 AM 23.0 °F 17.0 °F 8.6 °F 54% 30.14 in 10.0 mi North 4.6 mph - N/A   Clear
2:55 AM 26.6 °F - 12.2 °F 55% 30.13 in 10.0 mi Calm Calm - N/A   Clear
3:15 AM 24.8 °F - 8.6 °F 50% 30.12 in 10.0 mi Calm Calm - N/A   Clear
3:35 AM 23.0 °F - 6.8 °F 50% 30.12 in 10.0 mi Calm Calm - N/A   Clear
3:55 AM 24.8 °F 19.1 °F 8.6 °F 50% 30.12 in 10.0 mi North 4.6 mph - N/A   Clear
4:15 AM 24.8 °F - 10.4 °F 54% 30.10 in 10.0 mi Calm Calm - N/A   Clear
4:35 AM 21.2 °F - 8.6 °F 58% 30.09 in 10.0 mi Calm Calm - N/A   Clear
4:55 AM 19.4 °F - 8.6 °F 63% 30.08 in 10.0 mi Calm Calm - N/A   Clear
5:15 AM 21.2 °F 14.9 °F 8.6 °F 58% 30.08 in 10.0 mi NNW 4.6 mph - N/A   Clear
5:35 AM 17.6 °F 9.3 °F 6.8 °F 63% 30.08 in 10.0 mi North 5.8 mph - N/A   Clear
5:55 AM 19.4 °F 9.5 °F 8.6 °F 63% 30.07 in 10.0 mi North 8.1 mph - N/A   Clear
6:15 AM 21.2 °F 11.7 °F 8.6 °F 58% 30.06 in 10.0 mi NE 8.1 mph - N/A   Clear
6:35 AM 21.2 °F 12.6 °F 8.6 °F 58% 30.06 in 10.0 mi East 6.9 mph - N/A   Clear
6:55 AM 19.4 °F - 8.6 °F 63% 30.06 in 10.0 mi Calm Calm - N/A   Clear
7:15 AM 17.6 °F 12.3 °F 8.6 °F 68% 30.05 in 10.0 mi North 3.5 mph - N/A   Clear
7:35 AM 19.4 °F - 10.4 °F 68% 30.05 in 10.0 mi Calm Calm - N/A   Clear
7:55 AM 21.2 °F - 10.4 °F 63% 30.04 in 10.0 mi Calm Calm - N/A   Clear
8:15 AM 23.0 °F - 12.2 °F 63% 30.03 in 5.0 mi Calm Calm - N/A   Clear
8:35 AM 26.6 °F - 14.0 °F 59% 30.03 in 10.0 mi Calm Calm - N/A   Clear
8:55 AM 30.2 °F - 15.8 °F 55% 30.02 in 10.0 mi Calm Calm - N/A   Clear
9:15 AM 33.8 °F - 15.8 °F 48% 30.01 in 10.0 mi Calm Calm - N/A   Clear
9:35 AM 37.4 °F - 15.8 °F 41% 30.00 in 10.0 mi Calm Calm - N/A   Clear
9:55 AM 42.8 °F 39.3 °F 15.8 °F 34% 29.99 in 10.0 mi SSE 5.8 mph - N/A   Clear
10:15 AM 44.6 °F 39.7 °F 14.0 °F 29% 29.98 in 10.0 mi SSW 9.2 mph - N/A   Clear
10:35 AM 44.6 °F 39.7 °F 14.0 °F 29% 29.97 in 10.0 mi SW 9.2 mph - N/A   Clear
10:55 AM 46.4 °F 44.3 °F 14.0 °F 27% 29.96 in 10.0 mi SW 4.6 mph - N/A   Clear
11:15 AM 48.2 °F - 14.0 °F 25% 29.94 in 10.0 mi SW 9.2 mph 16.1 mph N/A   Clear
11:35 AM 50.0 °F - 14.0 °F 24% 29.92 in 10.0 mi SSW 11.5 mph 21.9 mph N/A   Clear
11:55 AM 53.6 °F - 14.0 °F 21% 29.90 in 10.0 mi SW 16.1 mph - N/A   Clear
12:15 PM 53.6 °F - 12.2 °F 19% 29.89 in 10.0 mi WSW 18.4 mph 26.5 mph N/A   Clear
12:35 PM 53.6 °F - 14.0 °F 21% 29.87 in 10.0 mi SW 15.0 mph 26.5 mph N/A   Clear
12:55 PM 53.6 °F - 12.2 °F 19% 29.85 in 10.0 mi WSW 11.5 mph 27.6 mph N/A   Clear
1:15 PM 55.4 °F - 12.2 °F 18% 29.82 in 10.0 mi SW 19.6 mph 26.5 mph N/A   Clear
1:35 PM 55.4 °F - 12.2 °F 18% 29.80 in 10.0 mi SW 19.6 mph 25.3 mph N/A   Clear
1:55 PM 55.4 °F - 12.2 °F 18% 29.77 in 10.0 mi SW 12.7 mph 24.2 mph N/A   Clear
2:15 PM 57.2 °F - 14.0 °F 18% 29.75 in 10.0 mi SW 20.7 mph 27.6 mph N/A   Clear
2:35 PM 57.2 °F - 14.0 °F 18% 29.73 in 10.0 mi WSW 23.0 mph 27.6 mph N/A   Clear
2:55 PM 59.0 °F - 12.2 °F 16% 29.71 in 10.0 mi WSW 23.0 mph 33.4 mph N/A   Clear
3:15 PM 60.8 °F - 12.2 °F 15% 29.69 in 10.0 mi WSW 21.9 mph 33.4 mph N/A   Clear
3:35 PM 57.2 °F - 10.4 °F 16% 29.68 in 10.0 mi SW 23.0 mph 27.6 mph N/A   Clear
3:55 PM 59.0 °F - 12.2 °F 16% 29.67 in 10.0 mi SW 18.4 mph 24.2 mph N/A   Clear
4:15 PM 59.0 °F - 12.2 °F 16% 29.65 in 10.0 mi West 18.4 mph 25.3 mph N/A   Clear
4:35 PM 60.8 °F - 10.4 °F 14% 29.63 in 10.0 mi West 23.0 mph 34.5 mph N/A   Clear
4:55 PM 59.0 °F - 6.8 °F 13% 29.61 in 10.0 mi West 28.8 mph 33.4 mph N/A   Clear
5:15 PM 59.0 °F - 6.8 °F 13% 29.61 in 10.0 mi West 24.2 mph 36.8 mph N/A   Clear
5:35 PM 60.8 °F - 6.8 °F 12% 29.61 in 10.0 mi West 34.5 mph 44.9 mph N/A   Clear
5:55 PM 57.2 °F - 3.2 °F 11% 29.61 in 10.0 mi WNW 25.3 mph 42.6 mph N/A   Clear
6:15 PM 55.4 °F - 3.2 °F 12% 29.60 in 10.0 mi WNW 20.7 mph 29.9 mph N/A   Clear
6:35 PM 55.4 °F - 3.2 °F 12% 29.60 in 10.0 mi West 24.2 mph 36.8 mph N/A   Clear
6:55 PM 53.6 °F - 3.2 °F 13% 29.59 in 10.0 mi West 23.0 mph 33.4 mph N/A   Clear
7:15 PM 53.6 °F - 3.2 °F 13% 29.59 in 10.0 mi West 18.4 mph 23.0 mph N/A   Mostly Cloudy
7:35 PM 53.6 °F - 3.2 °F 13% 29.59 in 10.0 mi West 13.8 mph - N/A   Overcast
7:55 PM 51.8 °F - 3.2 °F 14% 29.59 in 10.0 mi NW 10.4 mph - N/A   Mostly Cloudy
8:15 PM 50.0 °F - 3.2 °F 15% 29.59 in 10.0 mi WNW 15.0 mph 21.9 mph N/A   Mostly Cloudy
8:35 PM 51.8 °F - 8.6 °F 18% 29.58 in 10.0 mi West 13.8 mph 26.5 mph N/A   Scattered Clouds
8:55 PM 51.8 °F - 8.6 °F 18% 29.57 in 10.0 mi West 13.8 mph 29.9 mph N/A   Scattered Clouds
9:15 PM 51.8 °F - 8.6 °F 18% 29.57 in 10.0 mi West 19.6 mph 29.9 mph N/A   Mostly Cloudy
9:35 PM 51.8 °F - 8.6 °F 18% 29.57 in 10.0 mi WNW 16.1 mph 28.8 mph N/A   Mostly Cloudy
9:55 PM 51.8 °F - 8.6 °F 18% 29.58 in 10.0 mi WNW 19.6 mph 33.4 mph N/A   Scattered Clouds
10:15 PM 51.8 °F - 6.8 °F 16% 29.57 in 10.0 mi WNW 20.7 mph 26.5 mph N/A   Partly Cloudy
10:35 PM 50.0 °F - 5.0 °F 16% 29.57 in - WNW 23.0 mph 27.6 mph N/A   Unknown
10:55 PM 50.0 °F - 5.0 °F 16% 29.56 in 10.0 mi West 20.7 mph 25.3 mph N/A   Partly Cloudy
11:15 PM 48.2 °F - 3.2 °F 16% 29.56 in 10.0 mi WNW 19.6 mph 26.5 mph N/A   Scattered Clouds
11:35 PM 48.2 °F - 3.2 °F 16% 29.56 in 10.0 mi WNW 19.6 mph 28.8 mph N/A   Partly Cloudy
11:55 PM 48.2 °F - 3.2 °F 16% 29.57 in 10.0 mi WNW 23.0 mph 39.1 mph N/A   Clear